NOAA NWS Hourly Roundups by Site

Regional Weather Roundup for San Diego, CA

To Select Another Site Choose from List

Select Site:  

000
ASUS46 KSGX 160011
RWRSGX

SAN DIEGO HOURLY WEATHER ROUNDUP
NATIONAL WEATHER SERVICE SAN DIEGO CA
400 PM PST TUE JAN 15 2019

NOTE: "FAIR" INDICATES FEW OR NO CLOUDS BELOW 12,000 FEET WITH NO
SIGNIFICANT WEATHER AND/OR OBSTRUCTIONS TO VISIBILITY.

CAZ042-043-060-061-PZZ750-775-160100-

GREATER SAN DIEGO AREA

CITY           SKY/WX    TMP DP  RH WIND       PRES   REMARKS
SAN DIEGO AP   LGT RAIN  61  54  77 S13       30.05S
NATIONAL CITY    N/A     61  54  77 SW3       30.05S
CHULA VISTA      N/A     61  54  79 CALM      29.96S
IMPERIAL BEACH LGT RAIN  61  52  72 S9        30.05S
BROWN FIELD    RAIN      58  50  75 S13       30.04S
MIRAMAR MCAS   CLOUDY    61  50  67 S10G21    30.03S
MONTGOMERY FLD LGT RAIN  59  51  75 SE9       30.04S
GILLESPIE FLD  CLOUDY    59  48  67 VRB7      30.05S

$$

NORTH SAN DIEGO COUNTY

CITY           SKY/WX    TMP DP  RH WIND       PRES   REMARKS
CAMP PENDLETON CLOUDY    58  51  78 CALM      30.03S
OCEANSIDE AP   CLOUDY    60  51  72 S6        30.02S
OCEANSIDE HBR    N/A     60  54  80 E5        30.05R
VISTA            N/A     56  50  80 CALM      30.01F
CARLSBAD       CLOUDY    61  50  67 S9        30.02S
DEL MAR          N/A     59  53  80 SW3       30.05R
LA JOLLA SCRIP   N/A     59  54  84 SE12      30.03S
FALLBROOK      DRIZZLE   54  48  82 S5        30.04R
ESCONDIDO        N/A     58  50  74 SE12      30.05F
SAN MARCOS       N/A     58  50  75 SE1       30.07F
POWAY            N/A     57  51  79 CALM      30.07S

$$

EAST SAN DIEGO COUNTY

CITY           SKY/WX    TMP DP  RH WIND       PRES   REMARKS
RAMONA         CLOUDY    54  46  74 S3        30.04F
SANTEE LAKES     N/A     60  50  71 SE5       30.04S
LA MESA          N/A     57  51  80 CALM      30.00S
JAMUL            N/A     57  49  74 CALM      30.08R
CAMPO            N/A     52  43  71 SW12      30.01S

$$

ORANGE COUNTY AND THE LOS ANGELES BASIN

CITY           SKY/WX    TMP DP  RH WIND       PRES   REMARKS
JOHN WAYNE AP  RAIN      56  47  71 E6        30.03R
LAGUNA BEACH     N/A    N/A N/A N/A CALM      29.99R
LAKE FOREST FR   N/A     53  46  77 CALM      29.94R
HUNTINGTON BCH   N/A     54  51  89 SE1       30.03R
LOS ALAMITOS   RAIN      55  51  87 SE8       30.03R FOG
FULLERTON      HVY RAIN  56  49  77 E7        30.03R
LONG BEACH     RAIN      56  50  80 SE9       30.03R
L.A. AP        RAIN      54  50  86 E12       30.02R
L.A. DOWNTOWN  LGT RAIN  61  50  67 E9        30.02R

$$

THE INLAND EMPIRE

CITY           SKY/WX    TMP DP  RH WIND       PRES   REMARKS
CORONA         RAIN     N/A N/A N/A MISG        N/A
CHINO          RAIN      55  50  83 N3        30.06R
ONTARIO        LGT RAIN  51  46  83 N5        30.04R
SAN BERNARDINO DRIZZLE   54  46  76 E6        30.03S
RIVERSIDE AP   LGT RAIN  54  47  77 CALM      30.04R
MORENO VALLEY    N/A     51  49  92 SE6       28.15R
MARCH ARB      CLOUDY    52  49  89 S7        30.02S
HORSETHIEF CYN   N/A     52  44  74 S2        30.05R
PERRIS           N/A     53  48  86 S3        30.01S
HEMET EAST       N/A     50  40  70 CALM      30.01S
FRENCH VALLEY  CLOUDY    54  46  76 S8        30.03S
TEMECULA         N/A     54  53  94 SW2       30.04S

$$

SAN BERNARDINO AND RIVERSIDE COUNTY MOUNTAINS

CITY           SKY/WX    TMP DP  RH WIND       PRES   REMARKS
BIG BEAR AP    LGT SNOW  32  30  93 W12       29.97S VSB 1   WCI  23
ANGELUS OAKS     N/A     32  31  93 CALM      30.01S

$$

SOUTHERN DESERT INCLUDING THE COACHELLA VALLEY

CITY           SKY/WX    TMP DP  RH WIND       PRES   REMARKS
PALM SPRINGS   CLOUDY    57  47  69 VRB5      30.04R
PALM DESERT      N/A     57  51  79 CALM      29.93R
THERMAL        PTCLDY    59  53  80 CALM      30.02R
BORREGO AP     CLOUDY    61  46  59 SW10      30.02R
BLYTHE         CLEAR     58  55  90 SE8       30.03R
IMPERIAL AP    PTCLDY    59  51  75 CALM      30.02S
EL CENTRO NAS  MOSUNNY   61  51  70 NE5       30.04S
YUMA AZ        CLOUDY    59  54  83 CALM      30.05R
MEXICALI       PTCLDY    59  52  77 NE3       30.04

$$

UPPER DESERT

CITY           SKY/WX    TMP DP  RH WIND       PRES   REMARKS
VICTORVILLE AP CLOUDY   N/A N/A N/A SE18      29.96F
HESPERIA         N/A     46  39  77 W14       30.08R
APPLE VALLEY     N/A     47  39  73 NW8       30.06S
PALMDALE       LGT RAIN  47  43  86 N6        29.98R
LANCASTER      LGT RAIN  46  43  89 CALM      29.99R
EDWARDS AFB    LGT RAIN  49  47  92 CALM      29.97R
DAGGETT        MOCLDY    51  47  86 NE6       29.99S
29 PALMS N     MOCLDY    54  41  61 SW13      30.06R
NEEDLES        CLOUDY    53  49  86 CALM      30.02S

$$

REGIONAL REPORTS

CITY           SKY/WX    TMP DP  RH WIND       PRES   REMARKS
SANTA BARBARA  RAIN      53  50  89 E14G24    29.93R FOG
SANDBERG       RAIN      38  37  97 S24G36    29.92R VSB<1/4 WCI  27
LAS VEGAS NV   LGT RAIN  48  47  96 E6        29.99S VSB 1
PHOENIX AZ     CLOUDY    60  51  72 W7        30.02R
TIJUANA        PTSUNNY   61  50  67 SE13      30.07R

$$

OFFSHORE ISLANDS

CITY           SKY/WX    TMP DP  RH WIND       PRES   REMARKS
CATALINA ARPT  RAIN      51  51 100 SE21G29   29.97F FOG
SAN CLEMENTE I LGT RAIN  56  52  86 SE16G24   29.99F
SAN NICOLAS IS LGT RAIN  56  55  97 S20G26    29.92R VSB 1/4

$$

MARINE AND OFFSHORE BUOY REPORTS

STATION/POSITION SKY/WX   TEMP    WIND        PRES    VSBY  SWELL
                          AIR SEA DIR/SP/G                  HT/PER/DIR
                          (F)     (DEG/KT/KT) (MB)    (MI)  (FT/S/D)
TANNER BANKS               60 60              1013.1R
S CLEMENTE BASIN           61 61  150/ 17/ 21 1015.8F         7/280/16
SAN NICOLAS IS.               58                N/A           7/290/18
SO. S. ROSA ISLA           58 58  170/ 17/ 23 1011.4R         7/240/17
W. S. BARBARA CH                              1011.2R
M. S. BARBARA CH           56 59  100/ 21/ 31 1013.1R         3/260/11
S. MONICA BASIN            57 60  120/ 19/ 25 1014.1F         3/240/17
S PEDRO CHANNEL               60                N/A           3/260/11
OCEANSIDE OFFSHR              61                N/A           3/260/12
TORREY PINES OTR              60                N/A           3/270/13
SAN DIEGO BAY                                 1016.9S
IMPERIAL BEACH                59                N/A           5/270/18
POINT LOMA SOUTH              60                N/A           5/280/13

$$



 

View Past Reports for San Diego, CA.

Products Courtesy of NOAA-NWS
NWS Information Parsing Script by Ken True at Saratoga Weather - Script by SE Lincoln Weather.